Regional Weather Roundup
Issued by NWS State College, PA

Home | Current Version | Previous Version | Text Only | Print | Product List | Glossary Off
Versions: 1 2 3 4 5 6 7 8 9 10 11 12 13 14 15 16 17 18 19 20 21 22 23 24 25 26 27 28 29 30 31 32 33 34 35 36 37 38 39 40 41 42 43 44 45 46 47 48 49 50

000
ASUS41 KCTP 282010
RWRCTP

REGIONAL WEATHER ROUNDUP
NATIONAL WEATHER SERVICE STATE COLLEGE PA
300 PM EST SAT FEB 28 2015

Note: "fair" indicates few or no clouds below 12,000 feet with no
significant weather and/or obstructions to visibility.

* = STATION THAT DOES NOT REPORT PRECIPITATION /E.G. RAIN...SNOW...ETC/
    THUNDER OR FOG.

PAZ002>004-007>009-013>016-020>023-029>032-282100-
WESTERN PENNSYLVANIA

CITY           SKY/WX    TMP DP  RH WIND       PRES   REMARKS
ERIE           SUNNY     19   2  47 N6        30.72F WCI  11
MEADVILLE        N/A     20  -4  34 SW3       30.64F
FRANKLIN*      SUNNY     21  -2  35 SE3       30.65F
NEW CASTLE     FAIR      22  -6  29 VRB3      30.68F
BEAVER COUNTY  SUNNY     25   0  33 CALM      30.64F
BUTLER*        SUNNY     21   0  39 CALM      30.67F
PITTSBURGH INT PTSUNNY   25  -1  32 NE6       30.64F
PITTSBURGH     MOSUNNY   24  -6  26 E7        30.63F
INDIANA*       SUNNY     25  -4  28 CALM      30.67F
LATROBE        MOSUNNY   27   1  33 VRB6      30.66F
WASHINGTON CO* SUNNY     25   1  36 CALM      30.65F
$$

PAZ004>006-010>012-017>019-024>028-033>037-041-042-045-046-049>053-282100-
CENTRAL PENNSYLVANIA

CITY           SKY/WX    TMP DP  RH WIND       PRES   REMARKS
BRADFORD       SUNNY     23  -8  25 CALM      30.57F
DUBOIS         SUNNY     23  -6  28 CALM      30.60F
CLEARFIELD     SUNNY     23  -4  30 W5        30.64F
JOHNSTOWN      MOSUNNY   25  -1  32 NW3       30.55F
ALTOONA        SUNNY     22  -3  33 W3        30.65F
STATE COLLEGE  SUNNY     23  -6  28 CALM      30.68F
WILLIAMSPORT   SUNNY     24  -6  26 SW3       30.73F
SELINSGROVE    SUNNY     25  -2  31 CALM      30.75F
FT INDIANTOWN  FAIR      25  -2  31 SE6       30.74F
CAPITAL CITY   SUNNY     27  -3  27 VRB5      30.75F
HARRISBURG     MOSUNNY   26  -3  28 NW6       30.75F
YORK           SUNNY     25  -3  29 W3        30.75F
$$

PAZ038>040-043-044-047-048-054-055-060>062-067>071-282100-
EASTERN PENNSYLVANIA

CITY           SKY/WX    TMP DP  RH WIND       PRES   REMARKS
SCRANTON       SUNNY     24   0  35 CALM      30.69F
MOUNT POCONO   SUNNY     23  -3  32 NW7       30.59F WCI  15
ALLENTOWN      SUNNY     26  -4  27 CALM      30.74F
QUAKERTOWN*    CLEAR     25  -4  28 NW5       30.74F
READING        SUNNY     26  -5  25 VRB3      30.74F
LANCASTER      SUNNY     24   0  35 W6        30.75F
COATESVILLE    CLEAR     27   5  39 NW8       30.74S
POTTSTOWN      SUNNY     27  -2  28 NW7       30.76F
BLUE BELL      SUNNY     30   1  29 CALM      30.75F
DOYLESTOWN     SUNNY     25  -4  28 W7        30.73F
WILLOW GROVE   NOT AVBL
NORTH PHILA    SUNNY     31  -1  25 NW9       30.78F
PHILADELPHIA   MOSUNNY   30  -4  23 NW6       30.78F
$$



USA.gov is the U.S. government's official web portal to all federal, state and local government web resources and services.